sat.trackr.live / text

‹ back to catalog

VEERY-0G

NORAD 66675 · 2025-276K

PAYLOAD ACTIVE UNKNOWN

§ Identity

Operator
Country
US
Launch date
2025-11-28
Launch site
AFWTR
Launch vehicle
Mass (kg)
RCS (m²)

External: N2YO · Heavens-Above · Gunter

§ Orbital elements

Epoch: 2026-05-25T03:20:47.677344Z

Period
94.71 min
Inclination
97.4180°
Eccentricity
0.0007450
Mean motion
15.20375705 rev/d
Perigee alt
499.6 km
Apogee alt
509.8 km
Semi-major
6,882.8 km
B*
3.9934e-4
RAAN
219.0605°
Arg perigee
90.2988°
Mean anomaly
269.9101°
Rev number
2,692

§ Raw data

VEERY-0G1 66675U 25276K   26145.13944071  .00008637  00000+0  39934-3 0  99932 66675  97.4180 219.0605 0007450  90.2988 269.9101 15.20375705 26928

JSON: /api/v1/satellites/66675 · /tle

For live sub-satellite position, see the globe view (requires WebGL).

§ Visibility from observer

Set your observer location to see the next 7 days of passes ≥ 10°. The values pass through the URL so the page stays shareable.

No JS? Fill the form by hand. The geolocation button needs JavaScript.